W1LH-4 Weather Reports


time (UTC)temp
F
wind
direction
speed
knots
gust
knots
rain 1hr
in
rain 24hr
in
rain mn
in
humidity
%
barometer
mb
20260507173348 58 355 6.1 14.8 0.01 0.38 0.01 57 1002.4
20260507171852 58 360 7.8 13.0 0.01 0.38 0.01 57 1002.6
20260507170353 57 330 8.7 10.4 0.01 0.38 0.01 59 1002.5
20260507164900 56 355 6.1 11.3 0.01 0.38 0.01 61 1002.7
20260507163345 56 317 7.0 11.3 0.00 0.37 0.00 61 1002.9
20260507161847 55 329 5.2 11.3 0.00 0.37 0.00 66 1003.2
20260507160355 55 325 4.3 11.3 0.00 0.37 0.00 66 1003.4
20260507154859 54 269 6.1 10.4 0.00 0.37 0.00 71 1003.5
20260507153344 54 304 8.7 12.2 0.00 0.37 0.00 70 1003.6
20260507151849 53 5 5.2 12.2 0.00 0.37 0.00 75 1003.8
20260507150411 53 36 8.7 12.2 0.00 0.37 0.00 74 1003.8
20260507144854 52 330 6.1 9.6 0.00 0.37 0.00 71 1004.1
20260507143343 51 330 6.1 10.4 0.00 0.37 0.00 72 1004.2
20260507141906 51 344 4.3 11.3 0.00 0.37 0.00 70 1004.4
20260507140349 50 5 5.2 10.4 0.00 0.37 0.00 56 1004.7
20260507134852 50 31 6.1 13.0 0.00 0.37 0.00 49 1004.5
20260507133340 49 346 5.2 7.8 0.00 0.37 0.00 31 1004.5
20260507131845 49 309 6.1 9.6 0.00 0.37 0.00 18 1004.6
20260507130348 48 309 3.5 8.7 0.00 0.37 0.00 3 1004.4
20260507124857 48 355 4.3 8.7 0.00 0.37 0.00 1 1004.1
20260507123400 48 5 6.1 9.6 0.00 0.37 0.00 1 1004.4
20260507121905 48 30 6.1 10.4 0.00 0.37 0.00 1 1004.5
20260507120352 48 327 3.5 7.0 0.00 0.37 0.00 1 1004.7
20260507114856 48 324 3.5 7.8 0.00 0.37 0.00 1 1004.9
20260507113357 48 315 3.5 7.8 0.00 0.37 0.00 1 1004.7
20260507111845 48 33 3.5 7.0 0.00 0.37 0.00 1 1004.0
20260507110349 48 337 5.2 11.3 0.00 0.37 0.37 1 1004.2
20260507104912 48 273 5.2 8.7 0.00 0.37 0.37 1 1003.7
20260507103358 48 331 6.1 8.7 0.00 0.37 0.37 1 1003.7
20260507101841 49 355 3.5 8.7 0.00 0.37 0.37 1 1003.8
20260507100405 48 327 2.6 7.0 0.00 0.37 0.37 1 1004.1
20260507094848 48 5 5.2 14.8 0.00 0.37 0.37 1 1003.8
20260507093355 48 9 4.3 9.6 0.00 0.37 0.37 1 1003.0
20260507091859 49 342 5.2 11.3 0.00 0.37 0.37 1 1003.3
20260507090404 49 338 4.3 12.2 0.01 0.37 0.37 1 1003.4
20260507084910 49 18 6.1 11.3 0.01 0.37 0.37 1 1003.2
20260507083353 50 360 3.5 10.4 0.02 0.37 0.37 1 1003.0
20260507081920 50 341 4.3 8.7 0.07 0.37 0.37 1 1003.0
20260507080349 49 294 3.5 7.8 0.12 0.36 0.36 1 1002.8
20260507074853 49 275 1.7 9.6 0.17 0.36 0.36 1 1002.5
20260507073356 49 254 1.7 6.1 0.16 0.35 0.35 1 1001.8
20260507071844 49 240 2.6 9.6 0.11 0.30 0.30 1 1002.2
20260507070346 49 282 3.5 10.4 0.05 0.24 0.24 1 1003.2
20260507064850 50 259 5.2 12.2 0.01 0.19 0.19 1 1002.8
20260507063354 50 257 6.1 12.2 0.01 0.19 0.19 1 1002.5
20260507061841 50 214 5.2 13.9 0.02 0.19 0.19 1 1002.7
20260507060345 50 217 7.8 12.2 0.03 0.19 0.19 1 1003.0
20260507054848 50 225 7.0 13.0 0.02 0.18 0.18 1 1002.7
20260507053416 50 195 7.0 13.9 0.02 0.18 0.18 1 1002.8
20260507051917 51 233 7.8 16.5 0.01 0.17 0.17 1 1003.2
20260507050359 51 221 7.0 14.8 0.02 0.16 0.16 1 1003.4
20260507044847 51 238 7.8 17.4 0.03 0.16 0.16 1 1003.6
20260507043353 51 207 8.7 17.4 0.05 0.16 0.16 1 1003.9
20260507041918 51 244 9.6 16.5 0.07 0.16 0.16 1 1004.1
20260507040346 51 232 8.7 19.1 0.06 0.14 0.14 1 1004.1
20260507034850 51 217 11.3 22.6 0.07 0.13 0.13 1 1004.3
20260507033354 52 246 14.8 21.7 0.08 0.11 0.11 1 1004.4
20260507031840 52 229 8.7 25.2 0.07 0.09 0.09 1 1004.5
20260507030344 52 205 10.4 19.1 0.07 0.08 0.08 1 1004.9
20260507024847 52 223 12.2 19.1 0.05 0.06 0.06 1 1005.4
20260507023352 53 209 6.1 19.1 0.03 0.03 0.03 1 1006.1
20260507021841 53 231 10.4 25.2 0.02 0.02 0.02 1 1006.4
20260507020345 52 231 12.2 21.7 0.01 0.01 0.01 1 1006.7
20260507014850 52 229 10.4 16.5 0.01 0.01 0.01 1 1007.1
20260507013356 53 223 8.7 22.6 0.00 0.00 0.00 1 1007.2
20260507011840 52 208 7.0 16.5 0.00 0.00 0.00 1 1007.7
20260507010345 52 224 8.7 18.2 0.00 0.00 0.00 1 1007.9
20260507004852 52 213 12.2 21.7 0.00 0.00 0.00 1 1008.2
20260507003355 52 221 7.8 17.4 0.00 0.00 0.00 1 1008.2
20260507001841 52 254 8.7 18.2 0.00 0.00 0.00 6 1008.2
20260507000350 53 238 7.0 12.2 0.00 0.00 0.00 6 1008.3
20260506234854 53 213 7.8 19.1 0.00 0.00 0.00 12 1008.7
20260506233357 53 215 9.6 20.0 0.00 0.00 0.00 17 1009.2
20260506231845 54 209 7.8 17.4 0.00 0.00 0.00 22 1008.9
20260506230349 54 228 10.4 20.9 0.00 0.00 0.00 24 1009.3
20260506224853 54 194 8.7 21.7 0.00 0.00 0.00 26 1009.4
20260506223342 55 238 10.4 19.1 0.00 0.00 0.00 25 1009.2
20260506221847 55 227 9.6 17.4 0.00 0.00 0.00 22 1009.2
20260506220352 55 220 7.0 17.4 0.00 0.00 0.00 25 1009.2
20260506214839 55 226 8.7 20.0 0.00 0.00 0.00 27 1009.5
20260506213404 55 220 8.7 20.9 0.00 0.00 0.00 27 1009.7
20260506211847 54 238 6.1 15.6 0.00 0.00 0.00 27 1009.2
20260506210354 54 217 7.8 17.4 0.00 0.00 0.00 28 1009.3
20260506204839 54 246 7.0 13.9 0.00 0.00 0.00 28 1009.3
20260506203403 54 232 8.7 18.2 0.00 0.00 0.00 30 1009.3
20260506201845 54 217 8.7 15.6 0.00 0.00 0.00 31 1009.5
20260506200353 54 255 11.3 17.4 0.00 0.00 0.00 34 1009.7
20260506194858 54 268 11.3 25.2 0.00 0.00 0.00 34 1009.7
20260506193340 55 230 9.6 21.7 0.00 0.00 0.00 37 1009.5
20260506191847 55 223 9.6 19.1 0.00 0.00 0.00 35 1009.6
20260506190348 55 217 11.3 20.9 0.00 0.00 0.00 35 1009.7
20260506184849 55 211 12.2 17.4 0.00 0.00 0.00 31 1009.8
20260506183355 54 225 10.4 20.0 0.00 0.00 0.00 31 1009.8
20260506181856 54 207 10.4 20.0 0.00 0.00 0.00 32 1009.9
20260506180359 55 239 11.3 20.9 0.00 0.00 0.00 33 1010.0
20260506174904 55 229 12.2 20.9 0.00 0.00 0.00 31 1010.1